Home   Weather   Battambang   Past weeks

Flag for Cambodia Past Weather in Battambang, Cambodia — Yesterday and Last 2 Weeks

77 °F

Passing clouds.

Feels Like: 78 °F
Forecast: 76 / 90 °F
Wind: 5 mph from East

Location: Siemreap

Current Time: Oct 28, 2016 at 3:37:24 AM

Latest Report: Oct 28, 2016 at 2:00 AM

Visibility: 5 mi

Pressure: 29.83 "Hg

Humidity: 100%

Dew Point: 77 °F

Location of BattambangLocation

Past Weather in Battambang — Graph


Battambang Temperature Yesterday

Maximum temperature yesterday: 90 °F (at 1:30 PM)
Minimum temperature yesterday: 45 °F (at 2:30 AM)
Average temperature yesterday: 83 °F

High & Low Weather Summary for the Past Weeks

High90 °F (Oct 13, 3:30 PM)100% (Oct 13, 2:00 AM)29.92 "Hg (Oct 13, 2:00 AM)
Low45 °F (Oct 27, 2:30 AM)59% (Oct 14, 12:00 PM)29.56 "Hg (Oct 19, 3:30 PM)
Average83 °F84%29.72 "Hg
* Reported Oct 13 2:00 AM — Oct 28 2:00 AM, Battambang, Weather by CustomWeather, © 2016

Note: Actual official high and low records may vary slightly from our data, if they occured in-between our weather recording intervals... More about our weather records


Battambang Weather History for the Previous 24 Hours

Scroll right to see more
Time TempWeatherWind HumidityBarometerVisibility
2:00 AM
Fri, Oct 28
77 °FPassing clouds.5 mph100%29.83 "Hg5 mi
1:30 AM77 °FPassing clouds.2 mph100%29.83 "Hg5 mi
1:00 AM77 °FPassing clouds.5 mph100%29.86 "Hg5 mi
12:30 AM77 °FPartly cloudy.8 mph100%29.86 "Hg5 mi
12:00 AM77 °FSprinkles. Partly cloudy.7 mph100%29.89 "Hg4 mi
11:30 PM
Thu, Oct 27
77 °FSprinkles. Partly cloudy.10 mph100%29.89 "Hg4 mi
11:00 PM79 °FPartly cloudy.13 mph100%29.89 "Hg5 mi
10:30 PM81 °FPassing clouds.2 mph94%29.89 "Hg5 mi
10:00 PM81 °FPassing clouds.1 mph94%29.89 "Hg5 mi
9:30 PM81 °FPassing clouds.1 mph94%29.89 "Hg5 mi
9:00 PM81 °FPassing clouds.1 mph94%29.86 "Hg5 mi
8:30 PM81 °FPassing clouds.2 mph89%29.86 "Hg5 mi
8:00 PM81 °FPartly cloudy.3 mph89%29.86 "Hg5 mi
7:30 PM81 °FPassing clouds.6 mph89%29.86 "Hg5 mi
7:00 PM81 °FPassing clouds.7 mph94%29.83 "Hg5 mi
6:30 PM81 °FPassing clouds.1 mph89%29.80 "Hg5 mi
6:00 PM81 °FPassing clouds.5 mph89%29.80 "Hg5 mi
5:30 PM79 °FThunderstorms. Scattered clouds.3 mph89%29.80 "Hg5 mi
5:10 PM88 °FThunderstorms. Scattered clouds.14 mph75%29.77 "Hg4 mi
5:00 PM88 °FThunderstorms. Scattered clouds.6 mph75%29.77 "Hg5 mi
4:30 PM88 °FScattered clouds.5 mph70%29.77 "HgN/A
4:00 PM90 °FScattered clouds.5 mph71%29.74 "HgN/A
3:30 PM90 °FScattered clouds.5 mph71%29.74 "HgN/A
3:00 PM90 °FScattered clouds.5 mph67%29.77 "HgN/A
2:30 PM90 °FScattered clouds.3 mph63%29.77 "HgN/A
2:00 PM90 °FScattered clouds.6 mph63%29.83 "HgN/A
1:30 PM90 °FScattered clouds.6 mph63%29.83 "HgN/A
1:00 PM88 °FScattered clouds.8 mph66%29.83 "HgN/A
12:00 PM88 °FScattered clouds.6 mph66%29.89 "HgN/A
11:30 AM88 °FScattered clouds.6 mph66%29.89 "HgN/A
11:00 AM86 °FScattered clouds.8 mph70%29.92 "HgN/A
10:30 AM88 °FScattered clouds.6 mph70%29.92 "HgN/A
10:00 AM86 °FScattered clouds.9 mph70%29.92 "HgN/A
9:30 AM86 °FScattered clouds.7 mph75%29.92 "HgN/A
9:00 AM86 °FScattered clouds.6 mph75%29.92 "HgN/A
8:30 AM84 °FScattered clouds.5 mph84%29.92 "HgN/A
8:00 AM82 °FScattered clouds.3 mph89%29.89 "HgN/A
7:30 AM81 °FScattered clouds.6 mph100%29.89 "Hg6 mi
7:00 AM79 °FScattered clouds.6 mph100%29.86 "Hg6 mi
Weather by CustomWeather, © 2016

See weather overviewHow to use our weather pages